гора Шизе

Россия / Краснодарский край     44°44′24″N   38°09′54″E
темп.,
°C
ветер,
м/с
пор.,
м/с
влажн.,
%
обл.,
%
осадки,
мм/ч
давл.,
гПа
погр.,
м
15 мая, сб
сб1500:00+15ю11820 0.0 101211
03:00+14зсз11830 0.0 101311
06:00+14в01755 0.0 101412
09:00+20ссв22505 0.0 1015365
12:00+24св33465 0.0 1014836
15:00+25ссв33505 0.0 10131119
18:00+23св35675 0.0 1012444
21:00+17ссв11909 0.0 101213
16 мая, вс
вс1600:00+15з01955 0.0 101211
03:00+15с1196100 0.1 101115
06:00+15св1196100 0.0 101038
09:00+21св2379100 0.0 1009371
12:00+25всв466721 0.0 1007800
15:00+26всв576593 0.0 10061058
18:00+25всв59795 0.0 1004740
21:00+21в2593100 0.0 1003129
17 мая, пн
пн1700:00+19ююз229482 0.0 100326
03:00+19ююв41065100 0.0 1003426
06:00+18ююв6177089 0.0 1004755
09:00+19ююз4973100 0.0 1006672
12:00+20ююз51061100 0.0 1008752
15:00+20ююз4966100 0.0 1009656
18:00+19ю257143 0.0 1010578
21:00+13ю359774 0.0 1012150
18 мая, вт
вт1800:00+13ю479893 0.0 1012231
03:00+14ю479294 0.0 1012340
06:00+14ююз489380 0.0 1013294
09:00+18ююз356617 0.0 1014709
12:00+21ююз55540 0.0 10141095
15:00+21юз57572 0.0 10141018
18:00+18ююз37705 0.0 1015637
21:00+12ю34952 0.0 101671
19 мая, ср
ср1900:00+12ю34935 0.0 101675
03:00+12ю33925 0.0 101656
06:00+13ю2287100 0.0 101549
09:00+21вюв135526 0.0 1014547
12:00+25вюв2341100 0.0 10121351
15:00+26в23410 0.0 10111209
18:00+24в366750 0.0 1010304
21:00+18вюв229263 0.0 101014